Location: Godiavel Galaoual
(15.2485°N, 12.6604°W)
Time: 14:59:12
(UTC+00:00)

Envisat - Pass Details

Date: 08 December 2021
Orbit: 764 x 766 km, 98.2° (Epoch: 27 January)

Event Time Altitude Azimuth Distance (km) Brightness Sun altitude
Rises 04:52:01 0° 30° (NNE) 3,222 6.4 -30.9°
Reaches altitude 10° 04:54:38 10° 41° (NE) 2,295 5.7 -30.3°
Maximum altitude 04:58:54 28° 99° (E) 1,411 4.9 -29.4°
Drops below altitude 10° 05:03:11 10° 158° (SSE) 2,292 5.9 -28.4°
Sets 05:05:46 0° 169° (S) 3,216 6.6 -27.8°
